When you browse on this site, cookies collect data to enhance your experience and personalize the content and advertising you see.
Visit our Privacy Policy to learn more. By continuing to use the site, you agree to this use of cookies and data.
  • en France
  • Liste des pays
  • À 7 jours
  • Température de l'eau
  • Carte satellitaire
  • Carte météo
  • Widgets météo
  • user-avatar
    Se connecter

    Météo par heure à Totonicapán

    Ce jour, 24 Mai, Vendredi

    Heure Température Précipitation Vent Pression Humidité
    00:00 +10°C° 0 mm 2 m/s 553 mmHg 90%
    01:00 +10°C° 0.2 mm 2 m/s 553 mmHg 91%
    02:00 +11°C° 0.2 mm 1 m/s 552 mmHg 92%
    03:00 +11°C° 0.2 mm 1 m/s 552 mmHg 92%
    04:00 +11°C° 0 mm 1 m/s 552 mmHg 92%
    05:00 +11°C° 0 mm 1 m/s 552 mmHg 92%
    06:00 +11°C° 0 mm 1 m/s 552 mmHg 91%
    07:00 +13°C° 0 mm 1 m/s 553 mmHg 83%
    08:00 +15°C° 0 mm 2 m/s 555 mmHg 74%
    09:00 +17°C° 0 mm 2 m/s 556 mmHg 65%
    10:00 +17°C° 0.5 mm 2 m/s 556 mmHg 65%
    11:00 +18°C° 0.5 mm 2 m/s 556 mmHg 66%
    12:00 +18°C° 0.5 mm 2 m/s 556 mmHg 66%
    13:00 +18°C° 1.2 mm 2 m/s 556 mmHg 66%
    14:00 +18°C° 1.2 mm 2 m/s 556 mmHg 67%
    15:00 +18°C° 1.2 mm 2 m/s 555 mmHg 67%
    16:00 +17°C° 1.2 mm 2 m/s 555 mmHg 72%
    17:00 +16°C° 1.2 mm 2 m/s 554 mmHg 77%
    18:00 +14°C° 1.2 mm 2 m/s 554 mmHg 81%
    19:00 +14°C° 0.5 mm 2 m/s 553 mmHg 84%
    20:00 +13°C° 0.5 mm 1 m/s 553 mmHg 86%
    21:00 +12°C° 0.5 mm 1 m/s 553 mmHg 89%
    22:00 +11°C° 0 mm 1 m/s 553 mmHg 89%
    23:00 +11°C° 0 mm 1 m/s 553 mmHg 89%

    Demain, 25 Mai, Samedi

    Heure Température Précipitation Vent Pression Humidité
    00:00 +10°C° 0 mm 1 m/s 553 mmHg 89%
    01:00 +10°C° 0 mm 1 m/s 552 mmHg 89%
    02:00 +10°C° 0 mm 1 m/s 552 mmHg 88%
    03:00 +9°C° 0 mm 1 m/s 551 mmHg 88%
    04:00 +9°C° 0 mm 1 m/s 551 mmHg 88%
    05:00 +9°C° 0 mm 1 m/s 551 mmHg 88%
    06:00 +9°C° 0 mm 1 m/s 551 mmHg 88%
    07:00 +12°C° 0 mm 1 m/s 553 mmHg 78%
    08:00 +14°C° 0 mm 2 m/s 555 mmHg 69%
    09:00 +17°C° 0 mm 2 m/s 556 mmHg 60%
    10:00 +18°C° 0.3 mm 2 m/s 556 mmHg 60%
    11:00 +18°C° 0.3 mm 2 m/s 556 mmHg 59%
    12:00 +19°C° 0.3 mm 2 m/s 556 mmHg 59%
    13:00 +19°C° 1.2 mm 2 m/s 556 mmHg 59%
    14:00 +19°C° 1.2 mm 3 m/s 556 mmHg 58%
    15:00 +19°C° 1.2 mm 3 m/s 556 mmHg 57%
    16:00 +18°C° 1.4 mm 2 m/s 555 mmHg 63%
    17:00 +16°C° 1.4 mm 2 m/s 554 mmHg 69%
    18:00 +15°C° 1.4 mm 2 m/s 554 mmHg 74%
    19:00 +14°C° 0.6 mm 2 m/s 553 mmHg 80%
    20:00 +12°C° 0.6 mm 1 m/s 553 mmHg 85%
    21:00 +11°C° 0.6 mm 1 m/s 553 mmHg 90%
    22:00 +10°C° 0 mm 1 m/s 553 mmHg 89%
    23:00 +10°C° 0 mm 1 m/s 552 mmHg 88%

    Après-demain, 26 Mai, Dimanche

    Heure Température Précipitation Vent Pression Humidité
    00:00 +10°C° 0 mm 1 m/s 552 mmHg 87%
    01:00 +9°C° 0 mm 1 m/s 552 mmHg 87%
    02:00 +9°C° 0 mm 1 m/s 551 mmHg 86%
    03:00 +9°C° 0 mm 1 m/s 551 mmHg 85%
    04:00 +9°C° 0 mm 1 m/s 551 mmHg 87%
    05:00 +9°C° 0 mm 1 m/s 551 mmHg 88%
    06:00 +9°C° 0 mm 1 m/s 551 mmHg 89%
    07:00 +12°C° 0 mm 1 m/s 553 mmHg 77%
    08:00 +15°C° 0 mm 2 m/s 555 mmHg 64%
    09:00 +17°C° 0 mm 2 m/s 557 mmHg 52%
    10:00 +19°C° 0 mm 2 m/s 557 mmHg 49%
    11:00 +20°C° 0 mm 2 m/s 557 mmHg 45%
    12:00 +21°C° 0 mm 2 m/s 558 mmHg 41%
    13:00 +21°C° 0.6 mm 2 m/s 557 mmHg 44%
    14:00 +20°C° 0.6 mm 3 m/s 557 mmHg 47%
    15:00 +20°C° 0.6 mm 3 m/s 556 mmHg 49%
    16:00 +18°C° 0.9 mm 2 m/s 555 mmHg 56%
    17:00 +17°C° 0.9 mm 2 m/s 554 mmHg 63%
    18:00 +15°C° 0.9 mm 2 m/s 554 mmHg 70%
    19:00 +14°C° 0.2 mm 2 m/s 553 mmHg 75%
    20:00 +12°C° 0.2 mm 1 m/s 553 mmHg 80%
    21:00 +11°C° 0.2 mm 1 m/s 553 mmHg 85%
    22:00 +10°C° 0 mm 1 m/s 552 mmHg 85%
    23:00 +10°C° 0 mm 1 m/s 552 mmHg 85%

    27 Mai, Lundi

    Heure Température Précipitation Vent Pression Humidité
    00:00 +9°C° 0 mm 1 m/s 552 mmHg 85%
    01:00 +9°C° 0 mm 1 m/s 551 mmHg 84%
    02:00 +9°C° 0 mm 1 m/s 551 mmHg 83%
    03:00 +9°C° 0 mm 1 m/s 550 mmHg 81%
    04:00 +9°C° 0 mm 1 m/s 550 mmHg 81%
    05:00 +9°C° 0 mm 1 m/s 551 mmHg 81%
    06:00 +9°C° 0 mm 1 m/s 551 mmHg 81%
    07:00 +12°C° 0 mm 1 m/s 553 mmHg 71%
    08:00 +15°C° 0 mm 1 m/s 555 mmHg 61%
    09:00 +19°C° 0 mm 1 m/s 557 mmHg 51%
    10:00 +20°C° 0.2 mm 1 m/s 557 mmHg 51%
    11:00 +20°C° 0.2 mm 2 m/s 557 mmHg 50%
    12:00 +20°C° 0.2 mm 2 m/s 557 mmHg 50%
    13:00 +20°C° 1.2 mm 2 m/s 556 mmHg 53%
    14:00 +20°C° 1.2 mm 2 m/s 555 mmHg 55%
    15:00 +20°C° 1.2 mm 2 m/s 555 mmHg 57%
    16:00 +18°C° 1.3 mm 2 m/s 554 mmHg 63%
    17:00 +16°C° 1.3 mm 2 m/s 553 mmHg 69%
    18:00 +15°C° 1.3 mm 1 m/s 553 mmHg 76%
    19:00 +14°C° 0.6 mm 1 m/s 553 mmHg 79%
    20:00 +13°C° 0.6 mm 1 m/s 553 mmHg 83%
    21:00 +12°C° 0.6 mm 1 m/s 553 mmHg 86%
    22:00 +11°C° 0 mm 1 m/s 552 mmHg 87%
    23:00 +11°C° 0 mm 1 m/s 552 mmHg 88%

    28 Mai, Mardi

    Heure Température Précipitation Vent Pression Humidité
    00:00 +11°C° 0 mm 1 m/s 552 mmHg 89%
    01:00 +10°C° 0 mm 1 m/s 551 mmHg 88%
    02:00 +10°C° 0 mm 1 m/s 551 mmHg 87%
    03:00 +10°C° 0 mm 1 m/s 550 mmHg 86%
    04:00 +10°C° 0 mm 1 m/s 550 mmHg 84%
    05:00 +10°C° 0 mm 1 m/s 550 mmHg 82%
    06:00 +10°C° 0 mm 1 m/s 551 mmHg 80%
    07:00 +13°C° 0 mm 1 m/s 552 mmHg 71%
    08:00 +15°C° 0 mm 1 m/s 554 mmHg 62%
    09:00 +19°C° 0 mm 1 m/s 556 mmHg 53%
    10:00 +20°C° 0.2 mm 1 m/s 556 mmHg 54%
    11:00 +21°C° 0.2 mm 1 m/s 556 mmHg 54%
    12:00 +21°C° 0.2 mm 2 m/s 556 mmHg 54%
    13:00 +21°C° 1.4 mm 1 m/s 555 mmHg 61%
    14:00 +19°C° 1.4 mm 1 m/s 554 mmHg 67%
    15:00 +18°C° 1.4 mm 1 m/s 552 mmHg 74%
    16:00 +16°C° 2.7 mm 1 m/s 552 mmHg 78%
    17:00 +15°C° 2.7 mm 1 m/s 552 mmHg 82%
    18:00 +14°C° 2.7 mm 1 m/s 552 mmHg 87%
    19:00 +14°C° 1.7 mm 1 m/s 552 mmHg 88%
    20:00 +13°C° 1.7 mm 1 m/s 552 mmHg 88%
    21:00 +13°C° 1.7 mm 1 m/s 552 mmHg 89%
    22:00 +12°C° 2.3 mm 1 m/s 552 mmHg 90%
    23:00 +12°C° 2.3 mm 1 m/s 552 mmHg 90%

    29 Mai, Mercredi

    Heure Température Précipitation Vent Pression Humidité
    00:00 +11°C° 2.3 mm 1 m/s 552 mmHg 90%
    01:00 +11°C° 1.4 mm 1 m/s 551 mmHg 90%
    02:00 +11°C° 1.4 mm 1 m/s 551 mmHg 90%
    03:00 +11°C° 1.4 mm 1 m/s 551 mmHg 90%
    04:00 +11°C° 0.7 mm 1 m/s 551 mmHg 90%
    05:00 +11°C° 0.7 mm 1 m/s 551 mmHg 89%
    06:00 +11°C° 0.7 mm 1 m/s 551 mmHg 89%
    07:00 +13°C° 0.2 mm 1 m/s 552 mmHg 84%
    08:00 +14°C° 0.2 mm 0 m/s 553 mmHg 79%
    09:00 +16°C° 0.2 mm 0 m/s 555 mmHg 74%
    10:00 +17°C° 0.5 mm 0 m/s 555 mmHg 72%
    11:00 +20°C° 0.5 mm 1 m/s 555 mmHg 70%
    12:00 +21°C° 0.5 mm 1 m/s 555 mmHg 68%
    13:00 +20°C° 1.4 mm 1 m/s 555 mmHg 71%
    14:00 +19°C° 1.4 mm 1 m/s 554 mmHg 75%
    15:00 +18°C° 1.4 mm 1 m/s 553 mmHg 78%
    16:00 +16°C° 3.8 mm 1 m/s 552 mmHg 82%
    17:00 +15°C° 3.8 mm 1 m/s 552 mmHg 87%
    18:00 +14°C° 3.8 mm 1 m/s 552 mmHg 91%
    19:00 +14°C° 7.5 mm 1 m/s 552 mmHg 92%
    20:00 +13°C° 7.5 mm 1 m/s 552 mmHg 93%
    21:00 +13°C° 7.5 mm 1 m/s 553 mmHg 94%
    22:00 +13°C° 4.3 mm 1 m/s 552 mmHg 93%
    23:00 +13°C° 4.3 mm 1 m/s 552 mmHg 93%
    Voir plus